sat.trackr.live / text

‹ back to catalog

HULIANWANG DIGUI-41

NORAD 65044 · 2025-162B

PAYLOAD ACTIVE UNKNOWN

§ Identity

Operator
Country
PRC
Launch date
2025-07-30
Launch site
WSC
Launch vehicle
Mass (kg)
RCS (m²)

External: N2YO · Heavens-Above · Gunter

§ Orbital elements

Epoch: 2026-09-21T12:54:20.487168Z

Period
108.33 min
Inclination
50.0001°
Eccentricity
0.0000784
Mean motion
13.29326342 rev/d
Perigee alt
1,148.7 km
Apogee alt
1,149.9 km
Semi-major
7,527.4 km
B*
9.8196e-5
RAAN
280.3041°
Arg perigee
289.0607°
Mean anomaly
71.0180°
Rev number
5,617

§ Raw data

HULIANWANG DIGUI-411 65044U 25162B   26264.53773712 -.00000078  00000+0  98196-4 0  99922 65044  50.0001 280.3041 0000784 289.0607  71.0180 13.29326342 56177

JSON: /api/v1/satellites/65044 · /tle

For live sub-satellite position, see the globe view (requires WebGL).

§ Visibility from observer

Set your observer location to see the next 7 days of passes ≥ 10°. The values pass through the URL so the page stays shareable.

No JS? Fill the form by hand. The geolocation button needs JavaScript.